KB2UHF-8 Weather Reports


time (UTC)temp
C
wind
direction
speed
KPH
gust
KPH
rain 1hr
cm
rain 24hr
cm
rain mn
cm
humidity
%
barometer
mb
20260510054516 7 293 3.2 4.8 0.00 0.00 0.00 49 1014.1
20260510053536 8 293 4.8 8.0 0.00 0.00 0.00 45 1013.9
20260510052516 8 315 4.8 11.3 0.00 0.00 0.00 45 1013.8
20260510051516 8 315 4.8 8.0 0.00 0.00 0.00 45 1013.6
20260510050516 8 315 4.8 12.9 0.00 0.00 0.00 45 1013.8
20260510045517 8 315 4.8 8.0 0.00 0.00 0.00 45 1013.7
20260510044517 8 315 4.8 8.0 0.00 0.00 0.00 44 1013.6
20260510043517 8 315 4.8 9.7 0.00 0.00 0.00 44 1013.6
20260510042517 9 315 4.8 12.9 0.00 0.00 0.00 43 1013.6
20260510041537 9 315 6.4 12.9 0.00 0.00 0.00 43 1013.5
20260510040517 9 315 4.8 12.9 0.00 0.00 0.00 43 1013.3
20260510035517 9 315 6.4 12.9 0.00 0.00 0.00 42 1013.2
20260510034517 9 293 4.8 8.0 0.00 0.00 0.00 41 1013.2
20260510033517 10 293 6.4 14.5 0.00 0.00 0.00 41 1013.1
20260510032518 10 315 4.8 12.9 0.00 0.00 0.00 40 1012.8
20260510031517 10 315 4.8 11.3 0.00 0.00 0.00 39 1012.7
20260510030517 10 315 6.4 14.5 0.00 0.00 0.00 39 1012.5
20260510025517 10 315 6.4 14.5 0.00 0.00 0.00 38 1012.5
20260510024517 10 315 4.8 9.7 0.00 0.00 0.00 38 1012.1
20260510023517 11 293 6.4 16.1 0.00 0.00 0.00 37 1011.9
20260510022517 11 315 6.4 14.5 0.00 0.00 0.00 36 1011.8
20260510021557 11 293 4.8 12.9 0.00 0.00 0.00 37 1011.4
20260510020517 11 315 3.2 6.4 0.00 0.00 0.00 37 1011.4
20260510015517 11 315 6.4 14.5 0.00 0.00 0.00 37 1011.1
20260510014517 11 315 6.4 12.9 0.00 0.00 0.00 36 1010.9
20260510013517 12 315 9.7 19.3 0.00 0.00 0.00 34 1010.7
20260510012557 12 315 8.0 16.1 0.00 0.00 0.00 34 1010.4
20260510011516 12 315 8.0 17.7 0.00 0.00 0.00 34 1010.3
20260510010517 13 315 6.4 12.9 0.00 0.00 0.00 34 1010.0
20260510005517 13 315 6.4 14.5 0.00 0.00 0.00 32 1009.7
20260510004517 13 315 4.8 16.1 0.00 0.00 0.00 34 1009.6
20260510003536 13 315 8.0 14.5 0.00 0.00 0.00 32 1009.3
20260510002517 14 315 11.3 19.3 0.00 0.00 0.00 31 1009.2
20260510001516 15 338 11.3 22.5 0.00 0.00 0.00 32 1009.2
20260510000518 15 315 11.3 19.3 0.00 0.00 0.00 31 1008.9
20260509235517 15 293 9.7 20.9 0.00 0.00 0.00 31 1008.7
20260509234516 15 315 14.5 24.1 0.00 0.00 0.00 31 1008.7
20260509233516 15 293 9.7 20.9 0.00 0.00 0.00 32 1008.7
20260509232516 15 315 14.5 24.1 0.00 0.00 0.00 33 1008.6
20260509231517 16 338 14.5 25.7 0.00 0.00 0.00 33 1008.5
20260509230517 16 338 12.9 20.9 0.00 0.00 0.00 30 1008.2
20260509225516 16 338 16.1 29.0 0.00 0.00 0.00 33 1008.0
20260509224516 16 293 16.1 29.0 0.00 0.00 0.00 35 1007.7
20260509223516 16 315 14.5 29.0 0.00 0.00 0.00 35 1007.9
20260509222536 16 338 14.5 25.7 0.00 0.00 0.00 37 1007.7
20260509221516 16 315 14.5 25.7 0.00 0.00 0.00 38 1007.7
20260509220516 16 270 14.5 25.7 0.00 0.00 0.00 36 1007.4
20260509215516 16 315 12.9 25.7 0.00 0.00 0.00 37 1007.3
20260509214516 16 315 16.1 25.7 0.00 0.00 0.00 37 1007.2
20260509213516 16 315 16.1 29.0 0.00 0.00 0.00 39 1007.2
20260509212516 16 338 16.1 32.2 0.00 0.00 0.00 38 1007.2
20260509211516 16 315 17.7 30.6 0.00 0.00 0.00 37 1007.0
20260509210516 16 315 19.3 25.7 0.00 0.00 0.00 37 1007.0
20260509205516 16 293 14.5 30.6 0.00 0.00 0.00 37 1006.9
20260509204516 16 315 12.9 27.4 0.00 0.00 0.00 43 1006.9
20260509203516 16 315 14.5 27.4 0.00 0.00 0.00 40 1006.8
20260509202538 16 338 14.5 32.2 0.00 0.00 0.00 39 1007.0
20260509201536 16 315 12.9 27.4 0.00 0.00 0.00 41 1006.7
20260509200518 15 315 17.7 30.6 0.00 0.00 0.00 43 1006.7
20260509195538 15 315 16.1 25.7 0.00 0.00 0.00 44 1006.5
20260509194516 16 270 17.7 33.8 0.00 0.00 0.00 43 1006.5
20260509193516 16 315 19.3 41.8 0.00 0.00 0.00 43 1006.4
20260509192518 16 315 17.7 32.2 0.00 0.00 0.00 41 1006.5
20260509191536 16 315 17.7 32.2 0.00 0.00 0.00 45 1006.3
20260509190518 16 338 14.5 38.6 0.00 0.00 0.00 46 1006.0
20260509185516 16 293 17.7 33.8 0.00 0.00 0.00 43 1006.0
20260509184516 16 315 17.7 30.6 0.00 0.00 0.00 47 1006.1
20260509183516 16 338 14.5 27.4 0.00 0.00 0.00 50 1005.8
20260509182516 15 315 12.9 27.4 0.00 0.00 0.00 52 1005.8
20260509181516 15 315 14.5 27.4 0.00 0.00 0.00 50 1005.9
20260509180516 16 338 16.1 30.6 0.00 0.00 0.00 52 1005.9
20260509175516 16 315 14.5 25.7 0.00 0.00 0.00 53 1005.9
20260509174516 15 315 11.3 19.3 0.00 0.00 0.00 52 1005.8
20260509173616 15 270 17.7 32.2 0.00 0.00 0.00 47 1005.7
20260509172516 15 270 19.3 30.6 0.00 0.00 0.00 48 1005.6
20260509171516 15 315 17.7 35.4 0.00 0.00 0.00 50 1005.6
20260509170516 15 293 16.1 27.4 0.00 0.00 0.00 50 1005.6
20260509165516 15 293 17.7 32.2 0.00 0.00 0.00 53 1005.5
20260509164536 14 315 17.7 32.2 0.00 0.00 0.00 56 1005.3
20260509163516 15 315 16.1 32.2 0.00 0.00 0.00 56 1005.1
20260509162516 15 315 17.7 27.4 0.00 0.00 0.00 55 1005.0
20260509161516 15 293 12.9 24.1 0.00 0.00 0.00 54 1004.9
20260509160536 15 315 16.1 27.4 0.00 0.00 0.00 54 1004.7
20260509155516 15 315 11.3 27.4 0.00 0.00 0.00 56 1004.6
20260509154516 15 270 14.5 32.2 0.00 0.00 0.00 55 1004.5
20260509153516 15 315 12.9 25.7 0.00 0.00 0.00 50 1004.4
20260509152516 15 293 11.3 22.5 0.00 0.00 0.00 46 1004.1
20260509151516 14 270 12.9 20.9 0.00 0.00 0.00 46 1004.0
20260509150516 14 270 9.7 17.7 0.00 0.00 0.00 48 1003.8
20260509145518 13 248 11.3 19.3 0.00 0.00 0.00 48 1004.0
20260509144516 13 225 6.4 16.1 0.00 0.00 0.00 52 1003.7
20260509143536 12 248 3.2 9.7 0.00 0.00 0.00 57 1003.8
20260509142516 12 248 3.2 8.0 0.00 0.00 0.00 52 1003.7
20260509141516 12 270 3.2 8.0 0.00 0.00 0.00 52 1003.7
20260509140516 12 248 3.2 11.3 0.00 0.00 0.00 49 1003.9
20260509135536 12 270 3.2 9.7 0.00 0.00 0.00 50 1004.3
20260509134516 12 293 3.2 9.7 0.00 0.00 0.00 50 1004.0
20260509133516 12 270 6.4 12.9 0.00 0.00 0.00 51 1003.9
20260509132536 12 270 9.7 20.9 0.00 0.00 0.00 51 1004.2
20260509131516 11 270 9.7 17.7 0.00 0.00 0.00 54 1004.6
20260509130516 11 270 8.0 16.1 0.00 0.00 0.00 55 1004.4
20260509125516 10 248 6.4 14.5 0.00 0.00 0.00 56 1003.8
20260509124515 10 270 6.4 12.9 0.00 0.00 0.00 60 1003.6
20260509123556 8 293 8.0 11.3 0.00 0.00 0.00 63 1003.6
20260509122516 8 270 4.8 9.7 0.00 0.00 0.00 65 1002.9
20260509121516 8 248 4.8 6.4 0.00 0.00 0.00 64 1002.6
20260509120556 8 248 4.8 11.3 0.00 0.00 0.00 63 1002.4
20260509115516 8 248 4.8 6.4 0.00 0.00 0.00 62 1002.3
20260509114516 8 248 3.2 4.8 0.00 0.00 0.00 60 1002.2
20260509113535 10 248 3.2 4.8 0.00 0.00 0.00 53 1002.2
20260509112515 10 248 3.2 4.8 0.00 0.00 0.00 50 1002.2
20260509111516 10 225 4.8 9.7 0.00 0.00 0.00 49 1002.3
20260509110515 10 248 3.2 6.4 0.00 0.00 0.00 49 1002.3
20260509105515 10 270 3.2 6.4 0.00 0.00 0.00 50 1002.4
20260509104515 10 248 3.2 4.8 0.00 0.00 0.00 50 1002.5
20260509103515 10 270 3.2 6.4 0.00 0.00 0.00 51 1002.7
20260509102535 10 248 3.2 6.4 0.00 0.00 0.00 51 1002.6
20260509101515 10 248 3.2 6.4 0.00 0.00 0.00 52 1002.5
20260509100515 10 248 4.8 9.7 0.00 0.00 0.00 52 1002.5
20260509095515 10 270 4.8 9.7 0.00 0.00 0.00 53 1002.5
20260509094516 10 270 4.8 11.3 0.00 0.00 0.00 53 1002.7
20260509093515 10 270 4.8 11.3 0.00 0.00 0.00 52 1002.6
20260509092515 10 270 4.8 9.7 0.00 0.00 0.00 54 1002.5
20260509091515 10 270 4.8 9.7 0.00 0.00 0.00 54 1002.6
20260509090515 10 270 4.8 9.7 0.00 0.00 0.00 54 1002.4
20260509085535 10 270 4.8 11.3 0.00 0.00 0.00 54 1002.6
20260509084515 10 270 6.4 11.3 0.00 0.00 0.00 54 1002.7
20260509083515 10 270 4.8 11.3 0.00 0.00 0.00 53 1002.5
20260509082515 11 293 4.8 9.7 0.00 0.00 0.00 50 1002.5
20260509081535 11 293 4.8 11.3 0.00 0.00 0.00 49 1002.5
20260509080515 12 293 4.8 9.7 0.00 0.00 0.00 49 1002.5
20260509075515 12 293 6.4 12.9 0.00 0.00 0.00 47 1002.4
20260509074515 12 270 4.8 12.9 0.00 0.00 0.00 46 1002.5
20260509073535 12 293 6.4 12.9 0.00 0.00 0.00 46 1002.7
20260509072517 13 293 8.0 16.1 0.00 0.00 0.00 46 1002.7
20260509071517 13 270 8.0 14.5 0.00 0.00 0.00 46 1002.7
20260509070517 13 293 8.0 14.5 0.00 0.00 0.00 46 1002.8
20260509065517 13 270 9.7 16.1 0.00 0.00 0.00 46 1002.7
20260509064517 13 270 9.7 17.7 0.00 0.00 0.00 46 1002.7
20260509063537 13 293 8.0 16.1 0.00 0.00 0.00 45 1002.7
20260509062517 13 270 6.4 14.5 0.00 0.00 0.00 45 1002.7
20260509061517 13 270 8.0 16.1 0.00 0.00 0.00 45 1002.6
20260509060537 14 270 8.0 17.7 0.00 0.00 0.00 45 1002.7
20260509055517 13 270 6.4 12.9 0.00 0.00 0.00 44 1002.6